Flag for Australia Weather past 2 weeks in Adelaide, South Australia, Australia

57 °F

Passing clouds.

Feels Like: 52 °F
Forecast: 54 / 63 °F
Wind: 32 mph from Southwest

Location: Adelaide Airport

Current Time: Nov 26, 2015 at 2:48:43 AM

Latest Report: Nov 26, 2015 at 2:00 AM

Visibility: N/A

Pressure: 29.80 "Hg

Humidity: 77%

Dew point: 50 °F

Location of AdelaideLocation

Historic Weather in Adelaide — Graph


Adelaide temperature yesterday

Maximum temperature yesterday: 88 °F (at 1:00 PM)
Minimum temperature yesterday: 61 °F (at 5:30 AM)
Average temperature yesterday: 70 °F

Past Weeks' High & Low Weather Summary

High100 °F (Nov 18, 4:30 PM)88% (Nov 16, 5:30 AM)30.30 "Hg (Nov 16, 5:30 AM)
Low48 °F (Nov 22, 6:00 AM)7% (Nov 18, 4:30 PM)29.53 "Hg (Nov 25, 1:00 PM)
Average66 °F54%30.01 "Hg
* Reported Nov 11 1:30 AM — Nov 26 1:30 AM, Adelaide, Weather by CustomWeather, © 2015

Note: Actual official high and low records may vary slightly from our data, if they occured in-between our weather recording intervals... More about our weather records


Adelaide weather history for previous 24 hours

Time TempWeatherWind HumidityBarometerVisibility
1:30 AM
Thu, Nov 26
59 °FPartly cloudy.17 mph72%29.77 "HgN/A
1:00 AM61 °FScattered showers. Partly cloudy.21 mph68%29.77 "HgN/A
12:30 AM61 °FPassing clouds.20 mph63%29.77 "HgN/A
12:00 AM61 °FScattered showers. Partly cloudy.22 mph59%29.77 "HgN/A
11:30 PM
Wed, Nov 25
61 °FPassing clouds.21 mph63%29.77 "HgN/A
11:00 PM61 °FPartly cloudy.20 mph72%29.77 "HgN/A
10:30 PM61 °FSprinkles. Partly cloudy.22 mph83%29.74 "Hg5 mi
10:00 PM61 °FScattered showers. Partly cloudy.22 mph88%29.74 "Hg4 mi
9:30 PM64 °FPartly cloudy.22 mph78%29.68 "HgN/A
9:00 PM64 °FPartly cloudy.22 mph78%29.68 "HgN/A
8:30 PM64 °FBroken clouds.23 mph78%29.65 "HgN/A
8:00 PM66 °FBroken clouds.16 mph78%29.65 "HgN/A
7:30 PM68 °FBroken clouds.15 mph69%29.62 "HgN/A
7:00 PM66 °FPartly sunny.15 mph78%29.62 "HgN/A
6:30 PM66 °FBroken clouds.13 mph78%29.62 "HgN/A
6:00 PM66 °FPartly sunny.14 mph78%29.59 "HgN/A
5:30 PM66 °FLight rain. Broken clouds.10 mph78%29.59 "HgN/A
4:30 PM68 °FSunny.14 mph64%29.56 "Hg10 mi
4:00 PM70 °FSunny.16 mph57%29.56 "Hg10 mi
3:30 PM72 °FSunny.14 mph53%29.53 "Hg10 mi
2:30 PM79 °FSunny.21 mph37%29.53 "Hg10 mi
2:00 PM82 °FSunny.22 mph35%29.53 "Hg10 mi
1:30 PM88 °FSunny.24 mph15%29.53 "Hg10 mi
1:00 PM88 °FSunny.23 mph15%29.53 "Hg10 mi
12:30 PM84 °FSunny.24 mph23%29.56 "Hg10 mi
12:00 PM81 °FSunny.25 mph37%29.56 "Hg10 mi
11:30 AM86 °FSunny.30 mph15%29.56 "Hg10 mi
10:30 AM84 °FSunny.25 mph19%29.59 "Hg10 mi
10:00 AM84 °FSunny.23 mph13%29.59 "Hg10 mi
9:15 AM84 °FSunny.22 mph11%29.59 "Hg10 mi
8:30 AM79 °FSunny.17 mph15%29.62 "Hg10 mi
8:00 AM77 °FSunny.17 mph15%29.62 "Hg10 mi
7:30 AM75 °FSunny.15 mph18%29.62 "Hg10 mi
7:00 AM70 °FSunny.10 mph31%29.65 "Hg10 mi
6:30 AM63 °FSunny.5 mph49%29.65 "Hg10 mi
6:16 AM63 °FClear.1 mph49%29.65 "Hg10 mi
6:00 AM61 °FClear.No wind45%29.65 "Hg10 mi
5:30 AM61 °FClear.1 mph48%29.65 "Hg10 mi
5:00 AM63 °FClear.1 mph39%29.68 "Hg10 mi
4:30 AM64 °FClear.6 mph37%29.68 "Hg10 mi
4:00 AM64 °FClear.10 mph34%29.68 "Hg10 mi
3:30 AM64 °FClear.9 mph34%29.71 "Hg10 mi
3:00 AM64 °FClear.8 mph34%29.71 "Hg10 mi
2:30 AM63 °FClear.3 mph39%29.74 "Hg10 mi
2:00 AM64 °FClear.3 mph37%29.77 "Hg10 mi
Weather by CustomWeather, © 2015

See weather overviewHow to use our weather pages